Showing default

COSMOS 220, 3229

Orbit data source: Space-Track

COSMOS 220, 3229 is a payload satellite owned by OKB-10 (CIS) in LEO that was launched on Tue, 07 May 1968 UTC via a KOSMOS 11K65M launch vehicle from the Plesetsk Missile And Space Complex (PKMTR). Payload-class satellites include a variety of spacecraft equipped with specific instruments for various scientific and technological missions. These include communications satellites like Starlink; space stations such as the ISS; scientific satellites like the Hubble; Earth observation satellites from companies like Planet Labs, Umbra, and HawkEye 360; GPS; miniature CubeSats for education and research; and military/defense satellites.

Loading next visibility...
Identifier
3229, 1968-040A
Orbit
LEO
Country
Flag of CISCIS
Related business
Manufacturer
OKB-10
Mission
Spacecraft
Bus & Motor
KAUR-1 11F617, Unknown motor
Mass
775 kg wet, 775 kg dry
Launch date (UTC)
1968-05-07 (58 years ago)
Launch vehicle
KOSMOS 11K65M
Launch site
Plesetsk Missile And Space Complex (PKMTR)
Object type
Payload
Rocket body
Debris
Shape & HBR
Unknown
Radar Cross Section
Large (>1 m²)

Expand to show TLE details & history
Last TLE update: 7 hours ago

TLE from 7 hours ago
0 COSMOS 220
1 03229U 68040A   26174.96852854  .00000640  00000-0  86851-4 0  9993
2 03229  74.0238 167.7174 0032563  67.8562 292.6065 14.80863198 91398
Epoch: 2026-06-23T23:14Z
TLE epoch observation values (Epoch: 2026-06-23T23:14:40.865Z)
Latitude
-0.00008°
Longitude
-93.08538°
Altitude
620.559 km
Speed
7.553 km/s
True Right ascension
11h 10m 52s
True Declination
0° 00' 00"
Sunlit
Object was in daylight at epoch
Visualization orbit readout
Latitude
Unknown
Longitude
Unknown
Altitude
Unknown
Speed
Unknown
Apparent Right ascension
Unknown
Apparent Declination
Unknown
Sunlit
N/A
Visualization observer readout
Local Sidereal Time
17:51:08
Azimuth
Unknown
Elevation
Unknown
Doppler factor
Unknown
Orbital elements
Apogee altitude
646.978 km
Perigee altitude
601.375 km
Semi-major axis
7,002.313 km
Eccentricity
0.00326
Inclination
74.0238°
RAAN
167.7174°
Arg. of periapsis
67.8562°
True anomaly
292.26149°
Mean anomaly
292.6065°
Eccentric anomaly
292.43405°
Mean motion
3.70408 °/min
Orbital period
97.19 mins
BSTAR
0.000086851
Loading maneuver chart data...
Computing Atmospheric mass density...
Loading historical data...
Loading historical data...
Loading historical data...
Loading historical data...
Loading historical data...
Loading historical data...
Loading historical data...
Other satellites on launch #40 in the year 1968 (1968-05-07 UTC)

Documentation

Showing up to 5 results
|